8OJDFAOP Weather Reports


Display with metric or nautical units.
time (UTC)temp
F
wind
direction
speed
MPH
gust
MPH
rain 1hr
in
rain 24hr
in
rain mn
in
humidity
%
barometer
mb
20260510024521 54 358 2.0 5.0 0.00 0.04 0.04 60 1020.4
20260510023022 55 46 2.0 4.0 0.00 0.04 0.04 56 1020.2
20260510021558 56 48 2.0 6.0 0.00 0.04 0.04 56 1020.1
20260510020028 57 350 2.0 3.0 0.00 0.04 0.04 57 1020.0
20260510013018 60 25 0.0 1.0 0.00 0.04 0.04 44 1019.8
20260510011504 59 12 0.0 1.0 0.00 0.04 0.04 46 1019.7
20260510010021 59 22 2.0 3.0 0.00 0.04 0.04 45 1019.8
20260510004515 62 29 2.0 4.0 0.00 0.04 0.04 43 1019.9
20260510003023 62 2 2.0 5.0 0.00 0.04 0.04 41 1019.8
20260510001520 62 326 2.0 5.0 0.00 0.04 0.04 41 1019.7
20260510000008 62 315 2.0 5.0 0.00 0.04 0.04 42 1019.7
20260509234525 62 302 3.0 6.0 0.00 0.04 0.04 44 1019.6
20260509233017 62 10 0.0 7.0 0.00 0.04 0.04 42 1019.6
20260509231522 62 57 2.0 5.0 0.00 0.04 0.04 42 1019.6
20260509230031 62 265 1.0 7.0 0.00 0.04 0.04 45 1019.6
20260509224507 61 300 4.0 8.0 0.00 0.04 0.04 44 1019.7
20260509223012 61 37 4.0 7.0 0.00 0.04 0.04 45 1019.7
20260509221516 61 53 3.0 9.0 0.00 0.04 0.04 47 1019.8
20260509220021 59 306 3.0 8.0 0.00 0.04 0.04 50 1019.8
20260509214526 59 37 4.0 10.0 0.00 0.04 0.04 51 1020.1
20260509213013 58 335 5.0 11.0 0.00 0.04 0.04 52 1020.1
20260509211515 57 326 4.0 7.0 0.00 0.04 0.04 52 1020.2
20260509210020 56 304 3.0 6.0 0.00 0.04 0.04 56 1020.2
20260509204525 56 326 5.0 8.0 0.00 0.04 0.04 55 1020.2
20260509203027 56 344 3.0 9.0 0.00 0.04 0.04 57 1020.0
20260509201516 56 49 4.0 8.0 0.00 0.04 0.04 56 1019.9
20260509200019 55 12 5.0 8.0 0.00 0.04 0.04 58 1019.9
20260509194532 55 337 4.0 8.0 0.00 0.04 0.04 63 1019.9
20260509193025 54 326 5.0 8.0 0.00 0.04 0.04 63 1019.9
20260509191528 54 331 5.0 7.0 0.01 0.04 0.04 65 1019.9
20260509190019 54 358 4.0 7.0 0.01 0.04 0.04 64 1019.9
20260509184519 52 357 4.0 7.0 0.01 0.04 0.04 67 1019.9
20260509183021 52 276 3.0 7.0 0.01 0.04 0.04 70 1019.7
20260509181525 53 333 5.0 8.0 0.00 0.03 0.03 72 1019.7
20260509180027 52 31 2.0 6.0 0.00 0.03 0.03 73 1019.6
20260509174527 52 336 4.0 6.0 0.01 0.03 0.03 75 1019.5
20260509173029 51 347 3.0 7.0 0.01 0.03 0.03 77 1019.4
20260509171531 50 5 3.0 5.0 0.02 0.03 0.03 81 1019.4
20260509170026 49 351 4.0 7.0 0.03 0.03 0.03 83 1019.4
20260509164509 48 6 4.0 10.0 0.02 0.02 0.02 85 1019.5
20260509163010 48 349 5.0 10.0 0.02 0.02 0.02 84 1019.3
20260509161506 48 342 4.0 9.0 0.01 0.01 0.01 84 1019.2
20260509160008 48 352 5.0 12.0 0.00 0.00 0.00 81 1019.0
20260509154508 49 345 5.0 8.0 0.00 0.00 0.00 80 1018.6
20260509153024 50 20 5.0 11.0 0.00 0.00 0.00 75 1018.5
20260509151509 49 35 3.0 7.0 0.00 0.00 0.00 77 1018.4
20260509150008 48 32 2.0 6.0 0.00 0.00 0.00 78 1018.4
20260509144506 48 11 3.0 6.0 0.00 0.00 0.00 77 1018.3
20260509143010 49 30 3.0 6.0 0.00 0.00 0.00 78 1018.2
20260509141508 49 17 2.0 4.0 0.00 0.00 0.00 77 1018.1
20260509140011 49 13 1.0 4.0 0.00 0.00 0.00 77 1017.9
20260509134510 49 28 2.0 5.0 0.00 0.00 0.00 77 1017.7
20260509133008 48 1 0.0 2.0 0.00 0.00 0.00 77 1017.6
20260509131512 47 345 1.0 2.0 0.00 0.00 0.00 78 1017.4
20260509124522 48 345 1.0 4.0 0.00 0.00 0.00 73 1017.2
20260509123015 48 22 1.0 6.0 0.00 0.00 0.00 72 1017.1
20260509121510 48 261 2.0 5.0 0.00 0.00 0.00 72 1017.0
20260509120014 48 267 1.0 3.0 0.00 0.00 0.00 71 1016.7
20260509114516 48 277 2.0 5.0 0.00 0.00 0.00 71 1016.6
20260509111514 48 291 2.0 7.0 0.00 0.00 0.00 72 1016.4
20260509110020 48 296 3.0 6.0 0.00 0.00 0.00 72 1016.4
20260509104518 48 282 1.0 4.0 0.00 0.00 0.00 76 1016.3
20260509103005 49 281 2.0 5.0 0.00 0.00 0.00 75 1016.4
20260509101508 49 258 2.0 4.0 0.00 0.00 0.00 76 1016.3
20260509100008 49 287 2.0 4.0 0.00 0.00 0.00 76 1016.1
20260509094516 49 300 2.0 4.0 0.00 0.00 0.00 77 1015.9
20260509093019 49 340 5.0 11.0 0.00 0.00 0.00 77 1015.6
20260509091508 49 285 2.0 6.0 0.00 0.00 0.00 80 1015.4
20260509090009 50 347 4.0 9.0 0.00 0.00 0.00 78 1015.1
20260509084510 51 341 6.0 11.0 0.00 0.00 0.00 73 1015.0
20260509083017 52 333 7.0 12.0 0.00 0.00 0.00 70 1015.0
20260509081522 52 309 5.0 9.0 0.00 0.00 0.00 70 1014.7
20260509080005 53 298 4.0 9.0 0.00 0.00 0.00 67 1014.4
20260509074510 54 320 6.0 11.0 0.00 0.00 0.00 64 1013.9
20260509073034 54 294 7.0 13.0 0.00 0.00 0.00 62 1014.0
20260509071517 55 185 7.0 11.0 0.00 0.00 0.00 60 1013.9
20260509064508 54 271 7.0 12.0 0.00 0.00 0.00 62 1013.7
20260509063021 55 264 7.0 11.0 0.00 0.00 0.00 61 1013.7
20260509061514 56 262 6.0 10.0 0.00 0.00 0.00 57 1013.7
20260509060026 57 280 10.0 14.0 0.00 0.00 0.00 55 1013.7
20260509054524 57 262 5.0 9.0 0.00 0.00 0.00 52 1013.3
20260509053037 58 273 5.0 10.0 0.00 0.00 0.00 49 1013.3
20260509051514 59 276 6.0 13.0 0.00 0.00 0.00 46 1013.2
20260509050019 60 278 8.0 12.0 0.00 0.00 0.00 44 1013.0
20260509044519 58 290 4.0 9.0 0.00 0.00 0.00 47 1012.7
20260509043037 60 273 6.0 10.0 0.00 0.00 0.00 44 1012.5
20260509041526 59 289 3.0 11.0 0.00 0.00 0.00 45 1012.2
20260509034521 58 238 4.0 7.0 0.00 0.00 0.00 48 1012.0
20260509033022 58 265 2.0 3.0 0.00 0.00 0.00 50 1011.5
20260509031526 58 266 1.0 3.0 0.00 0.00 0.00 54 1011.3
20260509030026 60 278 3.0 6.0 0.00 0.00 0.00 49 1011.1